Flag for Hungary Weather past 2 weeks in Debrecen, Hungary

Now
34 °F

Fog.


Feels Like: 31 °F
Forecast: 27 / 38 °F
Wind: 3 mph from Southwest

Location: Debrecen Airport

Current Time: Jan 27, 2015 at 12:08:18 PM

Latest Report: Jan 27, 2015 at 11:15 AM


Visibility: 1 mi

Pressure: 30.04 "Hg

Humidity: 100%

Dew point: 34 °F

Location of DebrecenLocation

Historic Weather in Debrecen — Graph

°F

Debrecen temperature yesterday

Maximum temperature yesterday: 39 °F (at 12:45 PM)
Minimum temperature yesterday: 34 °F (at 5:15 AM)
Average temperature yesterday: 36 °F

Past Weeks' High & Low Weather Summary

 TemperatureHumidityPressure
High52 °F (Jan 21, 2:15 PM)100% (Jan 15, 5:15 AM)30.27 "Hg (Jan 15, 5:15 AM)
Low27 °F (Jan 14, 5:15 AM)49% (Jan 16, 1:15 PM)29.71 "Hg (Jan 24, 2:15 PM)
Average40 °F86%30.03 "Hg
* Reported Jan 12 10:15 AM — Jan 27 10:45 AM, Debrecen, Weather by CustomWeather, © 2014

Note: Actual official high and low records may vary slightly from our data, if they occured in-between our weather recording intervals... More about our weather records

Advertising

Debrecen weather history for previous 24 hours

 ConditionsComfort  
Time TempWeatherWind HumidityBarometerVisibility
10:45 AM
Jan 27
34 °FLight snow. Overcast.3 mph93%30.04 "Hg1 mi
10:15 AM34 °FLight snow. Overcast.5 mph93%30.04 "Hg1 mi
9:45 AM34 °FLight snow. Overcast.3 mph93%30.04 "Hg1 mi
9:15 AM32 °FLight snow. Overcast.3 mph100%30.04 "Hg1 mi
8:45 AM32 °FLight snow. Overcast.2 mph100%30.04 "Hg1 mi
8:15 AM32 °FIce fog.3 mph93%30.04 "Hg1 mi
7:45 AM32 °FIce fog.3 mph93%30.04 "Hg1 mi
7:15 AM32 °FIce fog.3 mph93%30.04 "Hg2 mi
6:54 AM30 °FIce fog.2 mph100%30.07 "Hg2 mi
5:45 AM30 °FClear.3 mph100%30.07 "Hg10 mi
4:45 PM
Jan 26
36 °FClear.3 mph75%30.18 "Hg10 mi
4:15 PM36 °FSunny.3 mph75%30.18 "Hg10 mi
3:45 PM37 °FScattered clouds.6 mph70%30.18 "HgN/A
3:15 PM39 °FScattered clouds.7 mph65%30.18 "HgN/A
2:45 PM39 °FPassing clouds.8 mph65%30.18 "HgN/A
2:15 PM39 °FPassing clouds.8 mph65%30.18 "HgN/A
1:45 PM39 °FScattered clouds.8 mph65%30.18 "HgN/A
1:15 PM39 °FScattered clouds.9 mph65%30.18 "HgN/A
12:45 PM39 °FPartly sunny.9 mph65%30.18 "HgN/A
12:15 PM37 °FScattered clouds.8 mph70%30.21 "HgN/A
Weather by CustomWeather, © 2014

See weather overviewHow to use our weather pages